sat.trackr.live / text

‹ back to catalog

STARLINK-33545

NORAD 62101 · 2024-220P

PAYLOAD ACTIVE UNKNOWN

§ Identity

Operator
Country
US
Launch date
2024-11-25
Launch site
AFETR
Launch vehicle
Mass (kg)
RCS (m²)

Purposes: comms

External: N2YO · Heavens-Above · Gunter

§ Orbital elements

Epoch: 2026-09-21T04:36:31.855104Z

Period
94.27 min
Inclination
42.9995°
Eccentricity
0.0001510
Mean motion
15.27590713 rev/d
Perigee alt
482.0 km
Apogee alt
484.1 km
Semi-major
6,861.2 km
B*
2.0915e-4
RAAN
181.1967°
Arg perigee
259.3556°
Mean anomaly
100.7125°
Rev number
10,292

§ Raw data

STARLINK-335451 62101U 24220P   26264.19203536  .00005499  00000+0  20915-3 0  99952 62101  42.9995 181.1967 0001510 259.3556 100.7125 15.27590713102925

JSON: /api/v1/satellites/62101 · /tle

For live sub-satellite position, see the globe view (requires WebGL).

§ Visibility from observer

Set your observer location to see the next 7 days of passes ≥ 10°. The values pass through the URL so the page stays shareable.

No JS? Fill the form by hand. The geolocation button needs JavaScript.